Year,Month,Day,Hour,Minute,Value (Times are PST for temperature in C)
2007,07,10,00,00,17.90
2007,07,10,00,01,17.90
2007,07,10,00,02,17.90
2007,07,10,00,03,17.80
2007,07,10,00,04,17.80
2007,07,10,00,05,17.80
2007,07,10,00,06,17.70
2007,07,10,00,07,17.70
2007,07,10,00,08,17.70
2007,07,10,00,09,17.60
2007,07,10,00,10,17.50
2007,07,10,00,11,17.50
2007,07,10,00,12,17.50
2007,07,10,00,13,17.40
2007,07,10,00,14,17.40
2007,07,10,00,15,17.40
2007,07,10,00,16,17.30
2007,07,10,00,17,17.30
2007,07,10,00,18,17.30
2007,07,10,00,19,17.30
2007,07,10,00,20,17.30
2007,07,10,00,21,17.20
2007,07,10,00,22,17.20
2007,07,10,00,23,17.20
2007,07,10,00,24,17.10
2007,07,10,00,25,17.10
2007,07,10,00,26,17.10
2007,07,10,00,27,17.00
2007,07,10,00,28,17.00
2007,07,10,00,29,17.00
2007,07,10,00,30,17.00
2007,07,10,00,31,17.00
2007,07,10,00,32,17.00
2007,07,10,00,33,17.00
2007,07,10,00,34,17.00
2007,07,10,00,35,17.00
2007,07,10,00,36,17.00
2007,07,10,00,37,16.90
2007,07,10,00,38,16.90
2007,07,10,00,39,16.90
2007,07,10,00,40,17.10
2007,07,10,00,41,17.10
2007,07,10,00,42,17.10
2007,07,10,00,43,17.10
2007,07,10,00,44,17.10
2007,07,10,00,45,17.10
2007,07,10,00,46,17.10
2007,07,10,00,47,17.10
2007,07,10,00,48,17.00
2007,07,10,00,49,17.00
2007,07,10,00,50,17.00
2007,07,10,00,51,17.00
2007,07,10,00,52,17.00
2007,07,10,00,53,17.00
2007,07,10,00,54,17.00
2007,07,10,00,55,17.00
2007,07,10,00,56,16.90
2007,07,10,00,57,16.90
2007,07,10,00,58,16.90
2007,07,10,00,59,16.90
2007,07,10,01,00,16.90
2007,07,10,01,01,16.80
2007,07,10,01,02,16.80
2007,07,10,01,03,16.80
2007,07,10,01,04,16.70
2007,07,10,01,05,16.70
2007,07,10,01,06,16.70
2007,07,10,01,07,16.60
2007,07,10,01,08,16.60
2007,07,10,01,09,16.60
2007,07,10,01,10,16.50
2007,07,10,01,11,16.40
2007,07,10,01,12,16.40
2007,07,10,01,13,16.40
2007,07,10,01,14,16.40
2007,07,10,01,15,16.40
2007,07,10,01,16,16.40
2007,07,10,01,17,16.40
2007,07,10,01,18,16.40
2007,07,10,01,19,16.40
2007,07,10,01,20,16.40
2007,07,10,01,21,16.40
2007,07,10,01,22,16.40
2007,07,10,01,23,16.40
2007,07,10,01,24,16.40
2007,07,10,01,25,16.40
2007,07,10,01,26,16.40
2007,07,10,01,27,16.40
2007,07,10,01,28,16.40
2007,07,10,01,29,16.40
2007,07,10,01,30,16.40
2007,07,10,01,31,16.40
2007,07,10,01,32,16.40
2007,07,10,01,33,16.40
2007,07,10,01,34,16.40
2007,07,10,01,35,16.40
2007,07,10,01,36,16.40
2007,07,10,01,37,16.40
2007,07,10,01,38,16.30
2007,07,10,01,39,16.30
2007,07,10,01,40,16.30
2007,07,10,01,41,16.30
2007,07,10,01,42,16.20
2007,07,10,01,43,16.20
2007,07,10,01,44,16.10
2007,07,10,01,45,16.10
2007,07,10,01,46,16.10
2007,07,10,01,47,16.10
2007,07,10,01,48,16.10
2007,07,10,01,49,16.00
2007,07,10,01,50,15.90
2007,07,10,01,51,15.90
2007,07,10,01,52,15.80
2007,07,10,01,53,15.80
2007,07,10,01,54,15.80
2007,07,10,01,55,15.80
2007,07,10,01,56,15.80
2007,07,10,01,57,15.70
2007,07,10,01,58,15.70
2007,07,10,01,59,15.70
2007,07,10,02,00,15.70
2007,07,10,02,01,15.60
2007,07,10,02,02,15.60
2007,07,10,02,03,15.60
2007,07,10,02,04,15.60
2007,07,10,02,05,15.50
2007,07,10,02,06,15.50
2007,07,10,02,07,15.50
2007,07,10,02,08,15.50
2007,07,10,02,09,15.50
2007,07,10,02,10,15.50
2007,07,10,02,11,15.40
2007,07,10,02,12,15.40
2007,07,10,02,13,15.40
2007,07,10,02,14,15.40
2007,07,10,02,15,15.40
2007,07,10,02,16,15.40
2007,07,10,02,17,15.30
2007,07,10,02,18,15.30
2007,07,10,02,19,15.30
2007,07,10,02,20,15.30
2007,07,10,02,21,15.30
2007,07,10,02,22,15.30
2007,07,10,02,23,15.30
2007,07,10,02,24,15.30
2007,07,10,02,25,15.30
2007,07,10,02,26,15.30
2007,07,10,02,27,15.30
2007,07,10,02,28,15.30
2007,07,10,02,29,15.30
2007,07,10,02,30,15.30
2007,07,10,02,31,15.30
2007,07,10,02,32,15.20
2007,07,10,02,33,15.20
2007,07,10,02,34,15.10
2007,07,10,02,35,15.10
2007,07,10,02,36,15.00
2007,07,10,02,37,15.00
2007,07,10,02,38,14.90
2007,07,10,02,39,14.90
2007,07,10,02,40,14.80
2007,07,10,02,41,14.80
2007,07,10,02,42,14.80
2007,07,10,02,43,14.80
2007,07,10,02,44,14.80
2007,07,10,02,45,14.80
2007,07,10,02,46,14.80
2007,07,10,02,47,14.80
2007,07,10,02,48,14.80
2007,07,10,02,49,14.70
2007,07,10,02,50,14.70
2007,07,10,02,51,14.70
2007,07,10,02,52,14.70
2007,07,10,02,53,14.70
2007,07,10,02,54,14.70
2007,07,10,02,55,14.70
2007,07,10,02,56,14.60
2007,07,10,02,57,14.60
2007,07,10,02,58,14.60
2007,07,10,02,59,14.60
2007,07,10,03,00,14.60
2007,07,10,03,01,14.60
2007,07,10,03,02,14.60
2007,07,10,03,03,14.60
2007,07,10,03,04,14.60
2007,07,10,03,05,14.60
2007,07,10,03,06,14.60
2007,07,10,03,07,14.50
2007,07,10,03,08,14.50
2007,07,10,03,09,14.50
2007,07,10,03,10,14.40
2007,07,10,03,11,14.40
2007,07,10,03,12,14.30
2007,07,10,03,13,14.30
2007,07,10,03,14,14.20
2007,07,10,03,15,14.20
2007,07,10,03,16,14.20
2007,07,10,03,17,14.20
2007,07,10,03,18,14.20
2007,07,10,03,19,14.20
2007,07,10,03,20,14.20
2007,07,10,03,21,14.20
2007,07,10,03,22,14.20
2007,07,10,03,23,14.10
2007,07,10,03,24,14.10
2007,07,10,03,25,14.10
2007,07,10,03,26,14.00
2007,07,10,03,27,14.00
2007,07,10,03,28,14.00
2007,07,10,03,29,14.00
2007,07,10,03,30,13.90
2007,07,10,03,31,13.90
2007,07,10,03,32,13.90
2007,07,10,03,33,13.90
2007,07,10,03,34,13.90
2007,07,10,03,35,13.80
2007,07,10,03,36,13.80
2007,07,10,03,37,13.80
2007,07,10,03,38,13.80
2007,07,10,03,39,13.80
2007,07,10,03,40,13.80
2007,07,10,03,41,13.80
2007,07,10,03,42,13.80
2007,07,10,03,43,13.80
2007,07,10,03,44,13.80
2007,07,10,03,45,13.80
2007,07,10,03,46,13.80
2007,07,10,03,47,13.80
2007,07,10,03,48,13.80
2007,07,10,03,49,13.80
2007,07,10,03,50,13.70
2007,07,10,03,51,13.70
2007,07,10,03,52,13.70
2007,07,10,03,53,13.70
2007,07,10,03,54,13.70
2007,07,10,03,55,13.70
2007,07,10,03,56,13.70
2007,07,10,03,57,13.50
2007,07,10,03,58,13.50
2007,07,10,03,59,13.40
2007,07,10,04,00,13.40
2007,07,10,04,01,13.40
2007,07,10,04,02,13.30
2007,07,10,04,03,13.30
2007,07,10,04,04,13.30
2007,07,10,04,05,13.30
2007,07,10,04,06,13.20
2007,07,10,04,07,13.20
2007,07,10,04,08,13.20
2007,07,10,04,09,13.20
2007,07,10,04,10,13.20
2007,07,10,04,11,13.20
2007,07,10,04,12,13.20
2007,07,10,04,13,13.20
2007,07,10,04,14,13.30
2007,07,10,04,15,13.30
2007,07,10,04,16,13.30
2007,07,10,04,17,13.30
2007,07,10,04,18,13.30
2007,07,10,04,19,13.30
2007,07,10,04,20,13.30
2007,07,10,04,21,13.30
2007,07,10,04,22,13.30
2007,07,10,04,23,13.30
2007,07,10,04,24,13.30
2007,07,10,04,25,13.30
2007,07,10,04,26,13.30
2007,07,10,04,27,13.40
2007,07,10,04,28,13.40
2007,07,10,04,29,13.40
2007,07,10,04,30,13.40
2007,07,10,04,31,13.40
2007,07,10,04,32,13.40
2007,07,10,04,33,13.40
2007,07,10,04,34,13.40
2007,07,10,04,35,13.40
2007,07,10,04,36,13.40
2007,07,10,04,37,13.40
2007,07,10,04,38,13.40
2007,07,10,04,39,13.40
2007,07,10,04,40,13.40
2007,07,10,04,41,13.40
2007,07,10,04,42,13.40
2007,07,10,04,43,13.40
2007,07,10,04,44,13.30
2007,07,10,04,45,13.30
2007,07,10,04,46,13.30
2007,07,10,04,47,13.30
2007,07,10,04,48,13.30
2007,07,10,04,49,13.30
2007,07,10,04,50,13.30
2007,07,10,04,51,13.30
2007,07,10,04,52,13.30
2007,07,10,04,53,13.30
2007,07,10,04,54,13.30
2007,07,10,04,55,13.30
2007,07,10,04,56,13.30
2007,07,10,04,57,13.20
2007,07,10,04,58,13.20
2007,07,10,04,59,13.20
2007,07,10,05,00,13.20
2007,07,10,05,01,13.20
2007,07,10,05,02,13.20
2007,07,10,05,03,13.20
2007,07,10,05,04,13.20
2007,07,10,05,05,13.20
2007,07,10,05,06,13.20
2007,07,10,05,07,13.20
2007,07,10,05,08,13.20
2007,07,10,05,09,13.20
2007,07,10,05,10,13.20
2007,07,10,05,11,13.20
2007,07,10,05,12,13.10
2007,07,10,05,13,13.10
2007,07,10,05,14,13.10
2007,07,10,05,15,13.20
2007,07,10,05,16,13.20
2007,07,10,05,17,13.20
2007,07,10,05,18,13.10
2007,07,10,05,19,13.10
2007,07,10,05,20,13.10
2007,07,10,05,21,13.00
2007,07,10,05,22,13.00
2007,07,10,05,23,13.00
2007,07,10,05,24,13.00
2007,07,10,05,25,13.00
2007,07,10,05,26,13.00
2007,07,10,05,27,12.90
2007,07,10,05,28,12.90
2007,07,10,05,29,12.90
2007,07,10,05,30,12.90
2007,07,10,05,31,12.90
2007,07,10,05,32,12.90
2007,07,10,05,33,12.90
2007,07,10,05,34,12.90
2007,07,10,05,35,12.90
2007,07,10,05,36,12.80
2007,07,10,05,37,12.80
2007,07,10,05,38,12.80
2007,07,10,05,39,12.80
2007,07,10,05,40,12.80
2007,07,10,05,41,12.80
2007,07,10,05,42,12.80
2007,07,10,05,43,12.80
2007,07,10,05,44,12.80
2007,07,10,05,45,12.80
2007,07,10,05,46,12.80
2007,07,10,05,47,12.80
2007,07,10,05,48,12.80
2007,07,10,05,49,12.80
2007,07,10,05,50,12.80
2007,07,10,05,51,12.80
2007,07,10,05,52,12.80
2007,07,10,05,53,12.80
2007,07,10,05,54,12.80
2007,07,10,05,55,12.80
2007,07,10,05,56,12.80
2007,07,10,05,57,12.80
2007,07,10,05,58,12.80
2007,07,10,05,59,12.80
2007,07,10,06,00,12.80
2007,07,10,06,01,12.80
2007,07,10,06,02,12.80
2007,07,10,06,03,12.80
2007,07,10,06,04,12.90
2007,07,10,06,05,12.90
2007,07,10,06,06,12.90
2007,07,10,06,07,12.90
2007,07,10,06,08,13.00
2007,07,10,06,09,13.00
2007,07,10,06,10,13.00
2007,07,10,06,11,13.10
2007,07,10,06,12,13.10
2007,07,10,06,13,13.20
2007,07,10,06,14,13.30
2007,07,10,06,15,13.30
2007,07,10,06,16,13.50
2007,07,10,06,17,13.50
2007,07,10,06,18,13.60
2007,07,10,06,19,13.70
2007,07,10,06,20,13.70
2007,07,10,06,21,13.80
2007,07,10,06,22,13.80
2007,07,10,06,23,13.90
2007,07,10,06,24,14.00
2007,07,10,06,25,14.10
2007,07,10,06,26,14.20
2007,07,10,06,27,14.20
2007,07,10,06,28,14.30
2007,07,10,06,29,14.40
2007,07,10,06,30,14.40
2007,07,10,06,31,14.40
2007,07,10,06,32,14.40
2007,07,10,06,33,14.40
2007,07,10,06,34,14.50
2007,07,10,06,35,14.50
2007,07,10,06,36,14.50
2007,07,10,06,37,14.60
2007,07,10,06,38,14.60
2007,07,10,06,39,14.70
2007,07,10,06,40,14.80
2007,07,10,06,41,14.80
2007,07,10,06,42,15.00
2007,07,10,06,43,15.10
2007,07,10,06,44,15.10
2007,07,10,06,45,15.30
2007,07,10,06,46,15.40
2007,07,10,06,47,15.50
2007,07,10,06,48,15.60
2007,07,10,06,49,15.70
2007,07,10,06,50,15.80
2007,07,10,06,51,15.80
2007,07,10,06,52,15.90
2007,07,10,06,53,15.90
2007,07,10,06,54,16.10
2007,07,10,06,55,16.20
2007,07,10,06,56,16.20
2007,07,10,06,57,16.30
2007,07,10,06,58,16.30
2007,07,10,06,59,16.40
2007,07,10,07,00,16.40
2007,07,10,07,01,16.40
2007,07,10,07,02,16.50
2007,07,10,07,03,16.60
2007,07,10,07,04,16.60
2007,07,10,07,05,16.70
2007,07,10,07,06,16.70
2007,07,10,07,07,16.70
2007,07,10,07,08,16.90
2007,07,10,07,09,17.00
2007,07,10,07,10,17.10
2007,07,10,07,11,17.30
2007,07,10,07,12,17.40
2007,07,10,07,13,17.50
2007,07,10,07,14,17.60
2007,07,10,07,15,17.70
2007,07,10,07,16,17.80
2007,07,10,07,17,18.00
2007,07,10,07,18,18.10
2007,07,10,07,19,18.20
2007,07,10,07,20,18.30
2007,07,10,07,21,18.30
2007,07,10,07,22,18.30
2007,07,10,07,23,18.40
2007,07,10,07,24,18.40
2007,07,10,07,25,18.40
2007,07,10,07,26,18.40
2007,07,10,07,27,18.50
2007,07,10,07,28,18.50
2007,07,10,07,29,18.60
2007,07,10,07,30,18.70
2007,07,10,07,31,18.90
2007,07,10,07,32,18.90
2007,07,10,07,33,19.00
2007,07,10,07,34,19.10
2007,07,10,07,35,19.10
2007,07,10,07,36,19.30
2007,07,10,07,37,19.30
2007,07,10,07,38,19.40
2007,07,10,07,39,19.50
2007,07,10,07,40,19.60
2007,07,10,07,41,19.70
2007,07,10,07,42,19.90
2007,07,10,07,43,20.10
2007,07,10,07,44,20.20
2007,07,10,07,45,20.20
2007,07,10,07,46,20.20
2007,07,10,07,47,20.30
2007,07,10,07,48,20.30
2007,07,10,07,49,20.30
2007,07,10,07,50,20.30
2007,07,10,07,51,20.40
2007,07,10,07,52,20.50
2007,07,10,07,53,20.60
2007,07,10,07,54,20.70
2007,07,10,07,55,20.80
2007,07,10,07,56,21.00
2007,07,10,07,57,21.10
2007,07,10,07,58,21.30
2007,07,10,07,59,21.30
2007,07,10,08,00,21.40
2007,07,10,08,01,21.40
2007,07,10,08,02,21.60
2007,07,10,08,03,21.60
2007,07,10,08,04,21.60
2007,07,10,08,05,21.60
2007,07,10,08,06,21.70
2007,07,10,08,07,21.80
2007,07,10,08,08,21.80
2007,07,10,08,09,21.90
2007,07,10,08,10,22.00
2007,07,10,08,11,22.10
2007,07,10,08,12,22.10
2007,07,10,08,13,22.20
2007,07,10,08,14,22.20
2007,07,10,08,15,22.30
2007,07,10,08,16,22.30
2007,07,10,08,17,22.30
2007,07,10,08,18,22.40
2007,07,10,08,19,22.40
2007,07,10,08,20,22.50
2007,07,10,08,21,22.50
2007,07,10,08,22,22.70
2007,07,10,08,23,22.70
2007,07,10,08,24,22.90
2007,07,10,08,25,22.90
2007,07,10,08,26,23.10
2007,07,10,08,27,23.20
2007,07,10,08,28,23.30
2007,07,10,08,29,23.30
2007,07,10,08,30,23.40
2007,07,10,08,31,23.50
2007,07,10,08,32,23.60
2007,07,10,08,33,23.60
2007,07,10,08,34,23.70
2007,07,10,08,35,23.80
2007,07,10,08,36,23.90
2007,07,10,08,37,24.10
2007,07,10,08,38,24.10
2007,07,10,08,39,24.20
2007,07,10,08,40,24.30
2007,07,10,08,41,24.30
2007,07,10,08,42,24.50
2007,07,10,08,43,24.60
2007,07,10,08,44,24.70
2007,07,10,08,45,24.80
2007,07,10,08,46,24.80
2007,07,10,08,47,24.90
2007,07,10,08,48,25.00
2007,07,10,08,49,25.10
2007,07,10,08,50,25.20
2007,07,10,08,51,25.30
2007,07,10,08,52,25.30
2007,07,10,08,53,25.30
2007,07,10,08,54,25.40
2007,07,10,08,55,25.50
2007,07,10,08,56,25.60
2007,07,10,08,57,25.60
2007,07,10,08,58,25.50
2007,07,10,08,59,25.50
2007,07,10,09,00,25.50
2007,07,10,09,01,25.50
2007,07,10,09,02,25.50
2007,07,10,09,03,25.60
2007,07,10,09,04,25.70
2007,07,10,09,05,25.80
2007,07,10,09,06,25.80
2007,07,10,09,07,25.90
2007,07,10,09,08,26.00
2007,07,10,09,09,26.10
2007,07,10,09,10,26.10
2007,07,10,09,11,26.20
2007,07,10,09,12,26.30
2007,07,10,09,13,26.30
2007,07,10,09,14,26.40
2007,07,10,09,15,26.40
2007,07,10,09,16,26.40
2007,07,10,09,17,26.60
2007,07,10,09,18,26.60
2007,07,10,09,19,26.60
2007,07,10,09,20,26.60
2007,07,10,09,21,26.60
2007,07,10,09,22,26.60
2007,07,10,09,23,26.60
2007,07,10,09,24,26.60
2007,07,10,09,25,26.60
2007,07,10,09,26,26.70
2007,07,10,09,27,26.80
2007,07,10,09,28,26.80
2007,07,10,09,29,26.90
2007,07,10,09,30,26.80
2007,07,10,09,31,26.90
2007,07,10,09,32,27.00
2007,07,10,09,33,27.10
2007,07,10,09,34,27.00
2007,07,10,09,35,26.90
2007,07,10,09,36,26.90
2007,07,10,09,37,26.80
2007,07,10,09,38,26.80
2007,07,10,09,39,26.80
2007,07,10,09,40,26.80
2007,07,10,09,41,26.80
2007,07,10,09,42,26.80
2007,07,10,09,43,26.80
2007,07,10,09,44,26.80
2007,07,10,09,45,26.80
2007,07,10,09,46,26.80
2007,07,10,09,47,26.80
2007,07,10,09,48,26.90
2007,07,10,09,49,26.90
2007,07,10,09,50,26.80
2007,07,10,09,51,26.80
2007,07,10,09,52,26.70
2007,07,10,09,53,26.60
2007,07,10,09,54,26.60
2007,07,10,09,55,26.60
2007,07,10,09,56,26.70
2007,07,10,09,57,26.80
2007,07,10,09,58,27.00
2007,07,10,09,59,27.10
2007,07,10,10,00,27.20
2007,07,10,10,01,27.30
2007,07,10,10,02,27.30
2007,07,10,10,03,27.30
2007,07,10,10,04,27.30
2007,07,10,10,05,27.30
2007,07,10,10,06,27.40
2007,07,10,10,07,27.40
2007,07,10,10,08,27.40
2007,07,10,10,09,27.60
2007,07,10,10,10,27.60
2007,07,10,10,11,27.40
2007,07,10,10,12,27.40
2007,07,10,10,13,27.30
2007,07,10,10,14,27.30
2007,07,10,10,15,27.30
2007,07,10,10,16,27.20
2007,07,10,10,17,27.10
2007,07,10,10,18,27.10
2007,07,10,10,19,27.10
2007,07,10,10,20,27.20
2007,07,10,10,21,27.20
2007,07,10,10,22,27.30
2007,07,10,10,23,27.30
2007,07,10,10,24,27.40
2007,07,10,10,25,27.50
2007,07,10,10,26,27.60
2007,07,10,10,27,27.70
2007,07,10,10,28,27.90
2007,07,10,10,29,28.00
2007,07,10,10,30,28.10
2007,07,10,10,31,28.10
2007,07,10,10,32,28.00
2007,07,10,10,33,27.90
2007,07,10,10,34,27.80
2007,07,10,10,35,27.60
2007,07,10,10,36,27.60
2007,07,10,10,37,27.60
2007,07,10,10,38,27.50
2007,07,10,10,39,27.60
2007,07,10,10,40,27.60
2007,07,10,10,41,27.70
2007,07,10,10,42,27.90
2007,07,10,10,43,28.00
2007,07,10,10,44,28.10
2007,07,10,10,45,28.10
2007,07,10,10,46,28.20
2007,07,10,10,47,28.10
2007,07,10,10,48,28.10
2007,07,10,10,49,28.10
2007,07,10,10,50,28.10
2007,07,10,10,51,28.00
2007,07,10,10,52,28.00
2007,07,10,10,53,27.80
2007,07,10,10,54,27.70
2007,07,10,10,55,27.60
2007,07,10,10,56,27.60
2007,07,10,10,57,27.60
2007,07,10,10,58,27.60
2007,07,10,10,59,27.50
2007,07,10,11,00,27.40
2007,07,10,11,01,27.40
2007,07,10,11,02,27.40
2007,07,10,11,03,27.50
2007,07,10,11,04,27.60
2007,07,10,11,05,27.60
2007,07,10,11,06,27.60
2007,07,10,11,07,27.60
2007,07,10,11,08,27.60
2007,07,10,11,09,27.70
2007,07,10,11,10,27.80
2007,07,10,11,11,27.90
2007,07,10,11,12,27.90
2007,07,10,11,13,27.90
2007,07,10,11,14,27.90
2007,07,10,11,15,27.90
2007,07,10,11,16,27.80
2007,07,10,11,17,27.80
2007,07,10,11,18,27.90
2007,07,10,11,19,28.00
2007,07,10,11,20,28.10
2007,07,10,11,21,28.10
2007,07,10,11,22,28.10
2007,07,10,11,23,28.10
2007,07,10,11,24,28.00
2007,07,10,11,25,27.80
2007,07,10,11,26,27.70
2007,07,10,11,27,27.60
2007,07,10,11,28,27.60
2007,07,10,11,29,27.60
2007,07,10,11,30,27.70
2007,07,10,11,31,27.80
2007,07,10,11,32,27.90
2007,07,10,11,33,27.90
2007,07,10,11,34,28.00
2007,07,10,11,35,28.00
2007,07,10,11,36,28.00
2007,07,10,11,37,28.00
2007,07,10,11,38,27.90
2007,07,10,11,39,27.80
2007,07,10,11,40,27.90
2007,07,10,11,41,27.90
2007,07,10,11,42,27.80
2007,07,10,11,43,27.80
2007,07,10,11,44,27.70
2007,07,10,11,45,27.70
2007,07,10,11,46,27.70
2007,07,10,11,47,27.80
2007,07,10,11,48,27.90
2007,07,10,11,49,28.00
2007,07,10,11,50,28.10
2007,07,10,11,51,28.30
2007,07,10,11,52,28.30
2007,07,10,11,53,28.40
2007,07,10,11,54,28.60
2007,07,10,11,55,28.60
2007,07,10,11,56,28.60
2007,07,10,11,57,28.50
2007,07,10,11,58,28.30
2007,07,10,11,59,28.20
2007,07,10,12,00,28.20
2007,07,10,12,01,28.30
2007,07,10,12,02,28.50
2007,07,10,12,03,28.60
2007,07,10,12,04,28.70
2007,07,10,12,05,28.70
2007,07,10,12,06,28.80
2007,07,10,12,07,28.80
2007,07,10,12,08,28.90
2007,07,10,12,09,28.90
2007,07,10,12,10,28.90
2007,07,10,12,11,28.90
2007,07,10,12,12,28.70
2007,07,10,12,13,28.70
2007,07,10,12,14,28.70
2007,07,10,12,15,28.70
2007,07,10,12,16,28.70
2007,07,10,12,17,28.70
2007,07,10,12,18,28.80
2007,07,10,12,19,28.90
2007,07,10,12,20,29.00
2007,07,10,12,21,29.10
2007,07,10,12,22,29.30
2007,07,10,12,23,29.40
2007,07,10,12,24,29.50
2007,07,10,12,25,29.60
2007,07,10,12,26,29.70
2007,07,10,12,27,29.70
2007,07,10,12,28,29.80
2007,07,10,12,29,29.80
2007,07,10,12,30,29.80
2007,07,10,12,31,29.90
2007,07,10,12,32,30.10
2007,07,10,12,33,30.20
2007,07,10,12,34,30.20
2007,07,10,12,35,30.30
2007,07,10,12,36,30.30
2007,07,10,12,37,30.40
2007,07,10,12,38,30.50
2007,07,10,12,39,30.60
2007,07,10,12,40,30.60
2007,07,10,12,41,30.60
2007,07,10,12,42,30.70
2007,07,10,12,43,30.70
2007,07,10,12,44,30.70
2007,07,10,12,45,30.50
2007,07,10,12,46,30.40
2007,07,10,12,47,30.40
2007,07,10,12,48,30.40
2007,07,10,12,49,30.30
2007,07,10,12,50,30.30
2007,07,10,12,51,30.20
2007,07,10,12,52,30.20
2007,07,10,12,53,30.30
2007,07,10,12,54,30.20
2007,07,10,12,55,30.20
2007,07,10,12,56,30.20
2007,07,10,12,57,30.20
2007,07,10,12,58,30.30
2007,07,10,12,59,30.40
2007,07,10,13,00,30.60
2007,07,10,13,01,30.70
2007,07,10,13,02,30.80
2007,07,10,13,03,30.90
2007,07,10,13,04,31.00
2007,07,10,13,05,31.00
2007,07,10,13,06,31.00
2007,07,10,13,07,31.00
2007,07,10,13,08,31.10
2007,07,10,13,09,31.20
2007,07,10,13,10,31.20
2007,07,10,13,11,31.30
2007,07,10,13,12,31.30
2007,07,10,13,13,31.30
2007,07,10,13,14,31.30
2007,07,10,13,15,31.30
2007,07,10,13,16,31.20
2007,07,10,13,17,31.10
2007,07,10,13,18,31.10
2007,07,10,13,19,31.00
2007,07,10,13,20,31.00
2007,07,10,13,21,30.90
2007,07,10,13,22,30.80
2007,07,10,13,23,30.60
2007,07,10,13,24,30.60
2007,07,10,13,25,30.60
2007,07,10,13,26,30.70
2007,07,10,13,27,30.80
2007,07,10,13,28,30.90
2007,07,10,13,29,31.00
2007,07,10,13,30,31.10
2007,07,10,13,31,31.20
2007,07,10,13,32,31.20
2007,07,10,13,33,31.30
2007,07,10,13,34,31.30
2007,07,10,13,35,31.30
2007,07,10,13,36,31.30
2007,07,10,13,37,31.40
2007,07,10,13,38,31.40
2007,07,10,13,39,31.40
2007,07,10,13,40,31.40
2007,07,10,13,41,31.40
2007,07,10,13,42,31.50
2007,07,10,13,43,31.60
2007,07,10,13,44,31.60
2007,07,10,13,45,31.60
2007,07,10,13,46,31.50
2007,07,10,13,47,31.60
2007,07,10,13,48,31.60
2007,07,10,13,49,31.50
2007,07,10,13,50,31.50
2007,07,10,13,51,31.60
2007,07,10,13,52,31.60
2007,07,10,13,53,31.60
2007,07,10,13,54,31.40
2007,07,10,13,55,31.40
2007,07,10,13,56,31.40
2007,07,10,13,57,31.40
2007,07,10,13,58,31.40
2007,07,10,13,59,31.40
2007,07,10,14,00,31.40
2007,07,10,14,01,31.40
2007,07,10,14,02,31.40
2007,07,10,14,03,31.40
2007,07,10,14,04,31.50
2007,07,10,14,05,31.60
2007,07,10,14,06,31.60
2007,07,10,14,07,31.60
2007,07,10,14,08,31.50
2007,07,10,14,09,31.40
2007,07,10,14,10,31.20
2007,07,10,14,11,31.10
2007,07,10,14,12,31.00
2007,07,10,14,13,31.10
2007,07,10,14,14,31.20
2007,07,10,14,15,31.20
2007,07,10,14,16,31.20
2007,07,10,14,17,31.20
2007,07,10,14,18,31.30
2007,07,10,14,19,31.40
2007,07,10,14,20,31.50
2007,07,10,14,21,31.60
2007,07,10,14,22,31.60
2007,07,10,14,23,31.70
2007,07,10,14,24,31.70
2007,07,10,14,25,31.70
2007,07,10,14,26,31.80
2007,07,10,14,27,31.90
2007,07,10,14,28,31.90
2007,07,10,14,29,32.00
2007,07,10,14,30,32.10
2007,07,10,14,31,32.10
2007,07,10,14,32,32.20
2007,07,10,14,33,32.20
2007,07,10,14,34,32.20
2007,07,10,14,35,32.10
2007,07,10,14,36,32.20
2007,07,10,14,37,32.20
2007,07,10,14,38,32.20
2007,07,10,14,39,32.20
2007,07,10,14,40,32.30
2007,07,10,14,41,32.40
2007,07,10,14,42,32.30
2007,07,10,14,43,32.30
2007,07,10,14,44,32.20
2007,07,10,14,45,32.10
2007,07,10,14,46,32.10
2007,07,10,14,47,32.10
2007,07,10,14,48,32.10
2007,07,10,14,49,32.10
2007,07,10,14,50,32.10
2007,07,10,14,51,32.10
2007,07,10,14,52,32.10
2007,07,10,14,53,32.10
2007,07,10,14,54,32.10
2007,07,10,14,55,32.10
2007,07,10,14,56,32.20
2007,07,10,14,57,32.20
2007,07,10,14,58,32.20
2007,07,10,14,59,32.20
2007,07,10,15,00,32.20
2007,07,10,15,01,32.30
2007,07,10,15,02,32.30
2007,07,10,15,03,32.40
2007,07,10,15,04,32.40
2007,07,10,15,05,32.40
2007,07,10,15,06,32.40
2007,07,10,15,07,32.40
2007,07,10,15,08,32.30
2007,07,10,15,09,32.30
2007,07,10,15,10,32.20
2007,07,10,15,11,32.10
2007,07,10,15,12,32.10
2007,07,10,15,13,32.10
2007,07,10,15,14,32.10
2007,07,10,15,15,32.10
2007,07,10,15,16,32.10
2007,07,10,15,17,32.20
2007,07,10,15,18,32.30
2007,07,10,15,19,32.40
2007,07,10,15,20,32.50
2007,07,10,15,21,32.50
2007,07,10,15,22,32.40
2007,07,10,15,23,32.40
2007,07,10,15,24,32.40
2007,07,10,15,25,32.30
2007,07,10,15,26,32.20
2007,07,10,15,27,32.20
2007,07,10,15,28,32.10
2007,07,10,15,29,31.90
2007,07,10,15,30,31.80
2007,07,10,15,31,31.60
2007,07,10,15,32,31.40
2007,07,10,15,33,31.40
2007,07,10,15,34,31.40
2007,07,10,15,35,31.20
2007,07,10,15,36,31.00
2007,07,10,15,37,31.00
2007,07,10,15,38,30.80
2007,07,10,15,39,30.70
2007,07,10,15,40,30.70
2007,07,10,15,41,30.80
2007,07,10,15,42,30.90
2007,07,10,15,43,31.10
2007,07,10,15,44,31.20
2007,07,10,15,45,31.30
2007,07,10,15,46,31.50
2007,07,10,15,47,31.60
2007,07,10,15,48,31.80
2007,07,10,15,49,31.90
2007,07,10,15,50,31.90
2007,07,10,15,51,31.90
2007,07,10,15,52,32.00
2007,07,10,15,53,32.10
2007,07,10,15,54,32.10
2007,07,10,15,55,32.10
2007,07,10,15,56,32.20
2007,07,10,15,57,32.20
2007,07,10,15,58,32.30
2007,07,10,15,59,32.30
2007,07,10,16,00,32.40
2007,07,10,16,01,32.40
2007,07,10,16,02,32.40
2007,07,10,16,03,32.40
2007,07,10,16,04,32.40
2007,07,10,16,05,32.50
2007,07,10,16,06,32.60
2007,07,10,16,07,32.60
2007,07,10,16,08,32.70
2007,07,10,16,09,32.80
2007,07,10,16,10,32.90
2007,07,10,16,11,32.90
2007,07,10,16,12,33.00
2007,07,10,16,13,33.10
2007,07,10,16,14,33.10
2007,07,10,16,15,33.10
2007,07,10,16,16,33.10
2007,07,10,16,17,33.10
2007,07,10,16,18,33.10
2007,07,10,16,19,33.20
2007,07,10,16,20,33.20
2007,07,10,16,21,33.20
2007,07,10,16,22,33.20
2007,07,10,16,23,33.10
2007,07,10,16,24,33.10
2007,07,10,16,25,33.10
2007,07,10,16,26,33.20
2007,07,10,16,27,33.20
2007,07,10,16,28,33.20
2007,07,10,16,29,33.20
2007,07,10,16,30,33.20
2007,07,10,16,31,33.20
2007,07,10,16,32,33.30
2007,07,10,16,33,33.40
2007,07,10,16,34,33.40
2007,07,10,16,35,33.50
2007,07,10,16,36,33.50
2007,07,10,16,37,33.50
2007,07,10,16,38,33.50
2007,07,10,16,39,33.50
2007,07,10,16,40,33.50
2007,07,10,16,41,33.50
2007,07,10,16,42,33.50
2007,07,10,16,43,33.50
2007,07,10,16,44,33.50
2007,07,10,16,45,33.60
2007,07,10,16,46,33.60
2007,07,10,16,47,33.50
2007,07,10,16,48,33.50
2007,07,10,16,49,33.50
2007,07,10,16,50,33.50
2007,07,10,16,51,33.50
2007,07,10,16,52,33.50
2007,07,10,16,53,33.60
2007,07,10,16,54,33.50
2007,07,10,16,55,33.50
2007,07,10,16,56,33.50
2007,07,10,16,57,33.50
2007,07,10,16,58,33.50
2007,07,10,16,59,33.50
2007,07,10,17,00,33.40
2007,07,10,17,01,33.40
2007,07,10,17,02,33.40
2007,07,10,17,03,33.40
2007,07,10,17,04,33.40
2007,07,10,17,05,33.40
2007,07,10,17,06,33.20
2007,07,10,17,07,33.20
2007,07,10,17,08,33.20
2007,07,10,17,09,33.20
2007,07,10,17,10,33.20
2007,07,10,17,11,33.20
2007,07,10,17,12,33.20
2007,07,10,17,13,33.10
2007,07,10,17,14,33.00
2007,07,10,17,15,32.80
2007,07,10,17,16,32.60
2007,07,10,17,17,32.30
2007,07,10,17,18,32.10
2007,07,10,17,19,32.00